Location: Unspecified
(52.1384°N, 8.6525°W)
Time: 11:54:08
(UTC+00:00)

N. Korean satellite - Pass Details

Date: 02 November 2020
Orbit: 453 x 503 km, 97.2° (Epoch: 03 December)

Event Time Altitude Azimuth Distance (km) Brightness Sun altitude
Rises 18:06:38 0° 202° (SSW) 2,519 10.7 -10.1°
Reaches altitude 10° 18:09:09 10° 221° (SW) 1,636 10.1 -10.5°
Maximum altitude 18:11:41 19° 268° (W) 1,194 9.8 -10.9°
Drops below altitude 10° 18:14:13 10° 315° (NW) 1,628 9.7 -11.2°
Sets 18:16:44 0° 334° (NNW) 2,501 10.4 -11.6°
